When you browse on this site, cookies collect data to enhance your experience and personalize the content and advertising you see.
Visit our Privacy Policy to learn more. By continuing to use the site, you agree to this use of cookies and data.
  • In Hungary
  • List of Countries
  • For 7 days
  • Water Temperature
  • Satellite Maps
  • Weather Map
  • News
  • Weather Widgets
  • user-avatar
    Login

    Hourly Weather Les Pennes-Mirabeau

    Today, 20 March, Wednesday

    Time Temperature Precipitation Wind Pressure Humidity
    00:00 +9°C° 0 mm 2 mps 759 mmHg 56%
    01:00 +9°C° 0 mm 2 mps 759 mmHg 57%
    02:00 +9°C° 0 mm 2 mps 759 mmHg 59%
    03:00 +8°C° 0 mm 2 mps 759 mmHg 61%
    04:00 +8°C° 0 mm 2 mps 759 mmHg 60%
    05:00 +8°C° 0 mm 2 mps 759 mmHg 60%
    06:00 +8°C° 0 mm 2 mps 760 mmHg 60%
    07:00 +10°C° 0 mm 1 mps 760 mmHg 54%
    08:00 +12°C° 0 mm 1 mps 760 mmHg 48%
    09:00 +12°C° 0 mm 0 mps 760 mmHg 42%
    10:00 +14°C° 0 mm 1 mps 760 mmHg 39%
    11:00 +15°C° 0 mm 2 mps 760 mmHg 37%
    12:00 +16°C° 0 mm 3 mps 760 mmHg 34%
    13:00 +16°C° 0 mm 3 mps 760 mmHg 34%
    14:00 +15°C° 0 mm 4 mps 760 mmHg 34%
    15:00 +15°C° 0 mm 4 mps 760 mmHg 34%
    16:00 +14°C° 0 mm 3 mps 760 mmHg 36%
    17:00 +14°C° 0 mm 3 mps 760 mmHg 38%
    18:00 +13°C° 0 mm 3 mps 760 mmHg 39%
    19:00 +14°C° 0 mm 2 mps 760 mmHg 42%
    20:00 +13°C° 0 mm 2 mps 761 mmHg 44%
    21:00 +12°C° 0 mm 2 mps 761 mmHg 46%
    22:00 +12°C° 0 mm 2 mps 762 mmHg 48%
    23:00 +12°C° 0 mm 1 mps 762 mmHg 50%

    Tomorrow, 21 March, Thursday

    Time Temperature Precipitation Wind Pressure Humidity
    00:00 +11°C° 0 mm 1 mps 762 mmHg 51%
    01:00 +11°C° 0 mm 1 mps 762 mmHg 53%
    02:00 +10°C° 0 mm 1 mps 761 mmHg 55%
    03:00 +9°C° 0 mm 2 mps 761 mmHg 57%
    04:00 +9°C° 0 mm 2 mps 761 mmHg 58%
    05:00 +9°C° 0 mm 2 mps 761 mmHg 58%
    06:00 +8°C° 0 mm 2 mps 761 mmHg 59%
    07:00 +10°C° 0 mm 2 mps 761 mmHg 53%
    08:00 +13°C° 0 mm 2 mps 761 mmHg 47%
    09:00 +14°C° 0 mm 2 mps 761 mmHg 40%
    10:00 +16°C° 0 mm 2 mps 761 mmHg 36%
    11:00 +17°C° 0 mm 2 mps 761 mmHg 31%
    12:00 +18°C° 0 mm 2 mps 761 mmHg 26%
    13:00 +19°C° 0 mm 2 mps 761 mmHg 26%
    14:00 +19°C° 0 mm 3 mps 760 mmHg 26%
    15:00 +19°C° 0 mm 3 mps 760 mmHg 26%
    16:00 +18°C° 0 mm 3 mps 760 mmHg 29%
    17:00 +17°C° 0 mm 2 mps 760 mmHg 32%
    18:00 +16°C° 0 mm 2 mps 760 mmHg 36%
    19:00 +16°C° 0 mm 2 mps 760 mmHg 38%
    20:00 +15°C° 0 mm 1 mps 761 mmHg 41%
    21:00 +14°C° 0 mm 1 mps 761 mmHg 44%
    22:00 +14°C° 0 mm 1 mps 761 mmHg 45%
    23:00 +13°C° 0 mm 1 mps 761 mmHg 47%

    Day after tomorrow, 22 March, Friday

    Time Temperature Precipitation Wind Pressure Humidity
    00:00 +13°C° 0 mm 1 mps 761 mmHg 48%
    01:00 +12°C° 0 mm 1 mps 761 mmHg 48%
    02:00 +12°C° 0 mm 1 mps 761 mmHg 49%
    03:00 +12°C° 0 mm 1 mps 761 mmHg 49%
    04:00 +12°C° 0 mm 2 mps 761 mmHg 48%
    05:00 +10°C° 0 mm 2 mps 761 mmHg 47%
    06:00 +10°C° 0 mm 2 mps 761 mmHg 47%
    07:00 +13°C° 0 mm 2 mps 761 mmHg 42%
    08:00 +15°C° 0 mm 2 mps 761 mmHg 36%
    09:00 +16°C° 0 mm 1 mps 761 mmHg 31%
    10:00 +18°C° 0 mm 2 mps 761 mmHg 28%
    11:00 +19°C° 0 mm 2 mps 761 mmHg 25%
    12:00 +21°C° 0 mm 2 mps 761 mmHg 23%
    13:00 +21°C° 0 mm 2 mps 760 mmHg 23%
    14:00 +21°C° 0 mm 3 mps 760 mmHg 23%
    15:00 +21°C° 0 mm 3 mps 760 mmHg 24%
    16:00 +20°C° 0 mm 3 mps 760 mmHg 28%
    17:00 +19°C° 0 mm 3 mps 760 mmHg 32%
    18:00 +18°C° 0 mm 3 mps 760 mmHg 35%
    19:00 +17°C° 0 mm 2 mps 760 mmHg 38%
    20:00 +16°C° 0 mm 2 mps 760 mmHg 40%
    21:00 +15°C° 0 mm 1 mps 760 mmHg 42%
    22:00 +15°C° 0 mm 1 mps 760 mmHg 43%
    23:00 +14°C° 0 mm 1 mps 760 mmHg 44%

    23 March, Saturday

    Time Temperature Precipitation Wind Pressure Humidity
    00:00 +13°C° 0 mm 0 mps 760 mmHg 44%
    01:00 +14°C° 0 mm 1 mps 760 mmHg 45%
    02:00 +13°C° 0 mm 1 mps 760 mmHg 46%
    03:00 +13°C° 0 mm 1 mps 759 mmHg 48%
    04:00 +13°C° 0 mm 1 mps 759 mmHg 48%
    05:00 +12°C° 0 mm 1 mps 759 mmHg 49%
    06:00 +12°C° 0 mm 2 mps 759 mmHg 49%
    07:00 +14°C° 0 mm 1 mps 759 mmHg 44%
    08:00 +15°C° 0 mm 1 mps 759 mmHg 40%
    09:00 +18°C° 0 mm 1 mps 759 mmHg 35%
    10:00 +19°C° 0 mm 1 mps 759 mmHg 32%
    11:00 +21°C° 0 mm 1 mps 759 mmHg 29%
    12:00 +22°C° 0 mm 1 mps 758 mmHg 27%
    13:00 +21°C° 0 mm 2 mps 758 mmHg 27%
    14:00 +21°C° 0 mm 2 mps 758 mmHg 27%
    15:00 +21°C° 0 mm 2 mps 757 mmHg 27%
    16:00 +20°C° 0 mm 2 mps 757 mmHg 30%
    17:00 +19°C° 0 mm 2 mps 757 mmHg 33%
    18:00 +18°C° 0 mm 2 mps 757 mmHg 37%
    19:00 +17°C° 0 mm 2 mps 758 mmHg 39%
    20:00 +16°C° 0 mm 1 mps 758 mmHg 42%
    21:00 +15°C° 0 mm 0 mps 758 mmHg 44%
    22:00 +14°C° 0 mm 0 mps 758 mmHg 45%
    23:00 +14°C° 0 mm 0 mps 758 mmHg 45%

    24 March, Sunday

    Time Temperature Precipitation Wind Pressure Humidity
    00:00 +13°C° 0 mm 0 mps 758 mmHg 46%
    01:00 +13°C° 0 mm 0 mps 758 mmHg 46%
    02:00 +13°C° 0 mm 0 mps 758 mmHg 46%
    03:00 +13°C° 0 mm 0 mps 757 mmHg 46%
    04:00 +13°C° 0 mm 1 mps 757 mmHg 47%
    05:00 +13°C° 0 mm 1 mps 757 mmHg 47%
    06:00 +13°C° 0 mm 1 mps 757 mmHg 47%
    07:00 +15°C° 0 mm 1 mps 757 mmHg 43%
    08:00 +16°C° 0 mm 1 mps 757 mmHg 39%
    09:00 +17°C° 0 mm 0 mps 758 mmHg 35%
    10:00 +20°C° 0 mm 1 mps 757 mmHg 32%
    11:00 +20°C° 0 mm 2 mps 757 mmHg 29%
    12:00 +21°C° 0 mm 2 mps 757 mmHg 26%
    13:00 +21°C° 0 mm 2 mps 757 mmHg 25%
    14:00 +21°C° 0 mm 3 mps 756 mmHg 25%
    15:00 +21°C° 0 mm 3 mps 756 mmHg 25%
    16:00 +20°C° 0 mm 3 mps 756 mmHg 28%
    17:00 +19°C° 0 mm 2 mps 756 mmHg 31%
    18:00 +17°C° 0 mm 2 mps 756 mmHg 33%
    19:00 +17°C° 0 mm 2 mps 756 mmHg 36%
    20:00 +16°C° 0 mm 1 mps 757 mmHg 38%
    21:00 +15°C° 0 mm 1 mps 757 mmHg 40%
    22:00 +15°C° 0 mm 1 mps 757 mmHg 40%
    23:00 +15°C° 0 mm 1 mps 757 mmHg 40%

    25 March, Monday

    Time Temperature Precipitation Wind Pressure Humidity
    00:00 +14°C° 0 mm 1 mps 756 mmHg 41%
    01:00 +14°C° 0 mm 1 mps 756 mmHg 42%
    02:00 +14°C° 0 mm 1 mps 756 mmHg 43%
    03:00 +13°C° 0 mm 1 mps 755 mmHg 44%
    04:00 +13°C° 0 mm 1 mps 755 mmHg 48%
    05:00 +13°C° 0 mm 1 mps 755 mmHg 51%
    06:00 +13°C° 0 mm 1 mps 755 mmHg 55%
    07:00 +14°C° 0 mm 1 mps 755 mmHg 53%
    08:00 +16°C° 0 mm 2 mps 755 mmHg 52%
    09:00 +17°C° 0 mm 2 mps 755 mmHg 51%
    10:00 +18°C° 0 mm 2 mps 755 mmHg 48%
    11:00 +19°C° 0 mm 3 mps 755 mmHg 46%
    12:00 +21°C° 0 mm 3 mps 755 mmHg 43%
    13:00 +21°C° 0 mm 4 mps 754 mmHg 43%
    14:00 +21°C° 0 mm 4 mps 754 mmHg 43%
    15:00 +21°C° 0 mm 5 mps 753 mmHg 43%
    16:00 +20°C° 0 mm 5 mps 753 mmHg 47%
    17:00 +19°C° 0 mm 5 mps 753 mmHg 50%
    18:00 +17°C° 0 mm 5 mps 753 mmHg 54%
    19:00 +16°C° 0 mm 5 mps 753 mmHg 55%
    20:00 +16°C° 0 mm 5 mps 753 mmHg 57%
    21:00 +15°C° 0 mm 4 mps 753 mmHg 59%
    22:00 +14°C° 0 mm 4 mps 753 mmHg 60%
    23:00 +14°C° 0 mm 4 mps 753 mmHg 61%
    Show more